Location: Omar
(37.5017°N, 88.9687°W)
Time: 11:51:26
(UTC+00:00)

Daily predictions for brighter satellites

Satellite Brightness Start Highest point End
(mag) Time Altitude Azimuth Time Altitude Azimuth Time Altitude Azimuth
STARLINK 1042 3.6 12:00:21 10° SSW 12:03:04 50° SE 12:05:49 10° ENE
STARLINK 1056 3.5 12:01:27 10° SSW 12:04:11 52° SE 12:06:55 10° ENE
STARLINK 1054 3.4 12:02:34 10° SSW 12:05:18 54° SE 12:08:02 10° NE
STARLINK 1062 3.3 12:03:20 10° SW 12:06:04 55° SE 12:08:50 10° NE
STARLINK 1053 3.2 12:04:52 10° SW 12:07:37 58° SE 12:10:23 10° NE
NOAA 6 4.3 12:02:55 10° N 12:07:49 47° WNW 12:12:41 10° SW
Okean O Rocket 2.1 12:03:50 10° N 12:07:51 37° WNW 12:11:50 10° SW
STARLINK 1061 3.2 12:05:21 10° SW 12:08:07 59° SE 12:10:54 10° NE
Helios 1A Rocket 3.5 12:04:50 10° N 12:08:31 33° WNW 12:12:09 10° SW
STARLINK 1067 3.1 12:06:27 10° SW 12:09:12 62° SE 12:11:59 10° NE
Cosmos 2228 Rocket 3.8 12:05:16 10° NNW 12:09:26 35° W 12:13:34 10° SSW
STARLINK 1058 3.1 12:07:22 10° SW 12:10:09 64° SE 12:12:57 10° NE
Cosmos 1805 Rocket 3.6 12:06:37 10° SSW 12:10:51 54° W 12:15:07 10° N
STARLINK 1043 3.0 12:08:24 10° SW 12:11:11 66° SE 12:13:59 10° NE
FALCON 9 DEB 2.5 12:08:58 10° SW 12:11:21 71° SE 12:13:45 10° NE
Cosmos 1707 Rocket 4.1 12:07:23 10° N 12:11:51 66° E 12:16:16 10° SSE
STARLINK 1065 3.0 12:09:17 10° SW 12:12:04 68° SE 12:14:52 10° NE
STARLINK 1027 2.9 12:10:04 10° SW 12:12:52 70° SE 12:15:41 10° NE
STARLINK 1028 2.9 12:10:15 10° SW 12:13:03 70° SE 12:15:53 10° NE
STARLINK 1021 2.9 12:10:26 10° SW 12:13:14 71° SE 12:16:04 10° NE
STARLINK 1063 2.9 12:10:34 10° SW 12:13:21 71° SE 12:16:09 10° NE
STARLINK 1019 2.9 12:10:37 10° SW 12:13:26 71° SE 12:16:16 10° NE
STARLINK 1012 2.9 12:10:48 10° SW 12:13:36 72° SE 12:16:26 10° NE
STARLINK 1010 2.9 12:10:58 10° SW 12:13:47 72° SE 12:16:37 10° NE
STARLINK 1026 2.9 12:11:11 10° SW 12:14:00 73° SE 12:16:49 10° NE
STARLINK 1064 2.8 12:11:21 10° SW 12:14:09 73° SE 12:16:58 10° NE
STARLINK 1013 2.9 12:11:22 10° SW 12:14:11 73° SE 12:17:00 10° NE
STARLINK 1009 2.9 12:11:32 10° SW 12:14:21 74° SE 12:17:11 10° NE
STARLINK 1015 2.8 12:11:43 10° SW 12:14:32 74° SE 12:17:22 10° NE
STARLINK 1016 2.8 12:11:55 10° SW 12:14:44 74° SE 12:17:34 10° NE
Exosat Rocket 4.4 12:11:30 10° NNW 12:17:29 85° WSW 12:25:59 10° SSE
Cosmos 2278 3.8 22:57:37 10° SSW 23:03:17 83° ESE 23:09:01 10° NNE
Cosmos 2360 4.3 22:59:25 10° SSW 23:05:04 71° ESE 23:10:45 10° NNE
Cosmos 1238 Rocket 4.3 23:02:19 10° NNW 23:05:35 34° W 23:08:28 10° SSW
Cosmos 1633 2.7 23:03:36 10° N 23:07:09 52° E 23:10:41 10° SSE
COSMO-SKYMED 1 3.9 23:06:05 10° NE 23:09:17 20° E 23:12:28 10° SE
Cosmos 2034 Rocket 4.4 23:04:31 10° N 23:10:30 41° ENE 23:16:26 10° SSE
Cosmos 1606 4.3 23:11:20 10° SE 23:13:39 16° E 23:15:57 10° NE
APEX 2.8 23:12:36 10° SSW 23:16:11 83° WNW 23:19:11 10° NNE
Cosmos 1371 Rocket 4.5 23:13:44 10° N 23:18:33 37° ENE 23:23:19 10° SE
SL-8 R/B 3.8 23:16:22 10° WSW 23:21:11 80° NW 23:26:00 10° NE
CZ-4 R/B 2.8 23:22:18 10° ESE 23:25:08 18° ENE 23:27:55 10° NNE
COSMOS 2455 4.2 23:22:11 10° SE 23:26:04 18° ESE 23:29:22 12° ENE
YAOGAN 1 4.0 23:25:13 10° ESE 23:27:54 16° ENE 23:30:36 10° NNE
Cosmos 2112 Rocket 4.3 23:22:56 10° SSW 23:28:06 73° WNW 23:33:21 10° NNE
GPS 2-04 Rocket1 2.6 23:25:10 10° WSW 23:28:40 63° S 23:31:39 13° E
Cosmos 1680 Rocket 4.2 23:28:03 10° SSW 23:33:08 55° WNW 23:38:18 10° N
CORIOLIS 4.1 23:28:50 10° SSE 23:34:14 80° ENE 23:39:41 10° N
Cosmos 1470 Rocket 3.9 23:30:30 10° N 23:34:47 43° E 23:39:01 10° SSE
AQUARIUS 4.2 23:30:39 10° SSE 23:35:08 88° WSW 23:39:40 10° NNW
Cosmos 1933 3.8 23:31:34 10° SSE 23:35:21 38° E 23:39:07 10° NNE
Tsikada Rocket 4.2 23:30:09 10° SSE 23:36:20 55° E 23:42:34 10° NNE
Cosmos 1862 3.4 23:32:47 10° N 23:36:47 81° W 23:40:46 10° S
SMAP 3.3 23:32:48 10° S 23:37:26 76° WSW 23:42:07 10° NNW
NOAA 12 4.1 23:33:51 10° SSE 23:39:07 65° ENE 23:44:24 10° N
Lacrosse 4 Rocket 4.0 23:36:54 10° W 23:39:11 14° NW 23:41:28 10° NNW
Cosmos 2360 Rocket 3.8 23:45:18 10° SE 23:47:53 14° ESE 23:47:53 14° ESE
YAOGAN 6 3.0 23:45:52 10° SE 23:49:03 35° ENE 23:52:16 10° N
DELTA 2 R/B (1) 3.6 23:44:50 10° WSW 23:50:26 75° SSE 23:54:12 21° ENE
GEOS 3 Rocket 3.6 23:45:31 10° NE 23:50:47 86° ESE 23:56:05 10° SW
H-2A R/B 3.7 23:48:19 10° S 23:52:03 51° W 23:55:46 10° NNW
Cosmos 1980 Rocket 2.9 23:47:56 10° SW 23:53:28 54° WNW 23:59:04 10° NNE
BREEZE-M R/B 3.3 23:47:09 10° SW 23:53:39 61° SE 23:55:36 26° ENE
BREEZE-M DEB (TANK) 3.3 23:48:50 10° WSW 23:55:09 47° NNW 23:57:03 22° NE
Cosmos 1782 4.3 23:52:46 10° SE 23:54:53 20° ESE 23:54:53 20° ESE
